Flag for Russia Weather past 2 weeks in Orenburg, Russia

Now
16 °F

Scattered clouds.


Feels Like: 3 °F
Forecast: 8 / 23 °F
Wind: 10 mph from North

Location: Orenburg / Tsentralny

Current Time: Oct 26, 2014 at 9:57:30 AM

Latest Report: Oct 26, 2014 at 9:30 AM


Visibility: N/A

Pressure: 30.39 "Hg

Humidity: 67%

Dew point: 7 °F

Location of OrenburgLocation

Historic Weather in Orenburg — Graph

°F

Orenburg temperature yesterday

Maximum temperature yesterday: 21 °F (at 3:30 PM)
Minimum temperature yesterday: 16 °F (at 12:00 AM)
Average temperature yesterday: 18 °F

Past Weeks' High & Low Weather Summary

 TemperatureHumidityPressure
High70 °F (Oct 17, 3:00 PM)100% (Oct 13, 10:00 AM)30.39 "Hg (Oct 13, 10:00 AM)
Low12 °F (Oct 24, 8:00 AM)15% (Oct 17, 4:00 PM)29.45 "Hg (Oct 18, 5:00 PM)
Average40 °F71%29.89 "Hg
* Reported Oct 11 9:30 AM — Oct 26 8:30 AM, Orenburg, Weather by CustomWeather, © 2014

Note: Actual official high and low records may vary slightly from our data, if they occured in-between our weather recording intervals... More about our weather records

Advertising

Orenburg weather history for previous 24 hours

 ConditionsComfort  
Time TempWeatherWind HumidityBarometerVisibility
8:30 AM
Oct 26
12 °FScattered clouds.6 mph73%30.39 "HgN/A
7:30 AM14 °FPassing clouds.13 mph67%30.36 "HgN/A
7:00 AM14 °FPassing clouds.10 mph67%30.36 "HgN/A
6:30 AM16 °FPassing clouds.15 mph67%30.33 "HgN/A
6:00 AM18 °FSnow flurries. Overcast.17 mph68%30.33 "Hg4 mi
5:30 AM18 °FSnow flurries. Overcast.10 mph73%30.30 "Hg4 mi
5:00 AM19 °FSnow flurries. Overcast.10 mph68%30.30 "Hg4 mi
4:30 AM19 °FSnow flurries. Overcast.15 mph73%30.30 "Hg4 mi
4:00 AM21 °FSnow flurries. Overcast.10 mph68%30.27 "Hg4 mi
3:30 AM21 °FSnow flurries. Overcast.13 mph68%30.27 "Hg4 mi
3:00 AM21 °FSnow flurries. Overcast.13 mph63%30.27 "Hg4 mi
2:30 AM21 °FOvercast.10 mph63%30.27 "HgN/A
2:00 AM21 °FSnow flurries. Overcast.10 mph74%30.24 "Hg2 mi
1:30 AM21 °FSnow flurries. Overcast.13 mph74%30.24 "Hg2 mi
1:00 AM21 °FSnow flurries. Overcast.13 mph74%30.24 "Hg4 mi
1:30 AM21 °FSnow flurries. Overcast.10 mph74%30.24 "Hg4 mi
1:00 AM21 °FSnow flurries. Overcast.13 mph74%30.24 "Hg4 mi
12:30 AM21 °FMostly cloudy.10 mph74%30.21 "HgN/A
12:00 AM21 °FMostly cloudy.10 mph74%30.21 "HgN/A
11:30 PM
Oct 25
21 °FMostly cloudy.10 mph80%30.21 "HgN/A
11:00 PM19 °FMostly cloudy.6 mph79%30.21 "HgN/A
10:30 PM18 °FPassing clouds.8 mph86%30.21 "HgN/A
10:00 PM19 °FSnow flurries. Mostly cloudy.10 mph79%30.21 "Hg2 mi
9:30 PM18 °FSnow flurries. Mostly cloudy.8 mph86%30.21 "Hg2 mi
9:00 PM18 °FSnow flurries. Mostly cloudy.8 mph86%30.18 "Hg2 mi
8:30 PM18 °FSnow flurries. Mostly cloudy.8 mph86%30.21 "Hg2 mi
8:00 PM19 °FSnow flurries. Partly cloudy.10 mph79%30.18 "Hg2 mi
7:30 PM19 °FPartly cloudy.10 mph73%30.18 "HgN/A
7:00 PM19 °FSnow flurries. Overcast.13 mph73%30.18 "Hg2 mi
6:30 PM21 °FOvercast.13 mph63%30.18 "HgN/A
6:00 PM21 °FOvercast.10 mph63%30.18 "HgN/A
5:30 PM21 °FSnow flurries. Overcast.15 mph63%30.18 "Hg2 mi
5:00 PM21 °FOvercast.13 mph58%30.18 "HgN/A
4:30 PM21 °FOvercast.15 mph58%30.18 "HgN/A
4:00 PM21 °FSnow flurries. Overcast.15 mph58%30.18 "Hg2 mi
3:30 PM21 °FOvercast.15 mph58%30.18 "HgN/A
3:00 PM19 °FSnow flurries. Overcast.15 mph63%30.18 "Hg2 mi
2:30 PM19 °FOvercast.15 mph63%30.18 "HgN/A
2:00 PM19 °FOvercast.15 mph63%30.18 "HgN/A
1:30 PM19 °FOvercast.13 mph63%30.15 "HgN/A
1:00 PM19 °FOvercast.13 mph58%30.15 "HgN/A
12:30 PM19 °FOvercast.10 mph63%30.18 "HgN/A
12:00 PM19 °FOvercast.13 mph63%30.18 "HgN/A
11:30 AM18 °FOvercast.8 mph68%30.18 "HgN/A
11:00 AM18 °FSnow flurries. Overcast.10 mph79%30.18 "Hg2 mi
10:30 AM18 °FOvercast.10 mph73%30.18 "HgN/A
10:00 AM16 °FSnow flurries. Low clouds.3 mph86%30.18 "Hg3 mi
9:30 AM16 °FHeavy snow. Ice fog.8 mph86%30.15 "Hg1 mi
9:00 AM16 °FSnow flurries. Overcast.10 mph79%30.15 "Hg3 mi
Weather by CustomWeather, © 2014

See weather overviewHow to use our weather pages